Other Public Products
Issued by NWS Grand Forks, ND

Home | Current Version | Previous Version | Graphics & Text | Print | Product List | Glossary On
Versions: 1 2 3 4 5 6 7 8 9 10 11 12 13 14 15 16 17 18 19 20 21 22 23 24 25 26 27 28 29 30 31 32 33 34 35 36 37 38 39 40 41 42 43 44 45 46 47 48 49 50
000
FPUS83 KFGF 101310
OPUFGF
PRAIRIE TO PINES WEATHER ROUNDUP
NATIONAL WEATHER SERVICE EASTERN NORTH DAKOTA/GRAND FORKS ND
800 AM CDT THU JUL 10 2014

 **SATELLITE DATA USED TO AUGMENT SKY COVER AT AUTOMATED STATIONS**
 *****  WEATHER ACROSS EASTERN NORTH DAKOTA  *****

CITY           SKY/WX    TMP DP  RH WIND       PRES   REMARKS
GRAND FORKS    SUNNY     61  54  77 S9        29.94S
GRAND FORKS AF SUNNY     62  57  84 S7        29.95R
GRAND CITY NWS   N/A     61 N/A N/A S6          N/A
BUXTON         NOT AVBL
DEVILS LAKE    SUNNY     64  54  68 S12       29.89S
FARGO          SUNNY     66  53  63 SE9       29.96S
WAHPETON ARPT  SUNNY     63  52  67 SE8       29.99S
$$

 *****  WEATHER ACROSS CENTRAL AND WESTERN NORTH DAKOTA  *****

CITY           SKY/WX    TMP DP  RH WIND       PRES   REMARKS
JAMESTOWN      SUNNY     63  56  78 S10       29.94S
BISMARCK       PTSUNNY   62  58  86 SE6       29.89F
MINOT          MOSUNNY   67  58  72 S17G24    29.83S
MINOT AFB      MOSUNNY   66  62  85 S10       29.82S
GARRISON         N/A     65  59  81 S10       29.86R
WILLISTON      CLOUDY    69  54  58 S8        29.79F
DICKINSON      CLOUDY    63  57  81 S12       29.87R
HETTINGER      CLOUDY    60  56  86 SE6       29.88S
$$

 *****  OTHER OBSERVATIONS NORTHEAST NORTH DAKOTA  *****

CITY           SKY/WX    TMP DP  RH WIND       PRES   REMARKS
WALHALLA         N/A     61  57  88 SE3         N/A
LANGDON        FAIR      63  55  77 S13       29.91S
CAVALIER       FAIR      61  54  77 S10       29.91F
GRAFTON        FAIR      59  55  88 S8        29.93S
CANDO          FAIR      64  57  77 S10       29.90S
FORT TOTTEN      N/A     62  57  84 S8        29.95
ROLLA          FAIR      59  59 100 S8        29.90S
RUGBY          FAIR      64  59  82 S9        29.87S
 ***** THE ABOVE OBSERVATIONS ARE NON NWS ARE NOT QUALITY
        CONTROLLED AND MAY MIS-REPORT RAIN FOR SNOW...
$$

 *****  OTHER OBSERVATIONS SOUTHEAST NORTH DAKOTA *****

CITY           SKY/WX    TMP DP  RH WIND       PRES   REMARKS
COOPERSTOWN    NOT AVBL
VALLEY CITY    FAIR      59  59 100 S8        29.96S
OAKES          NOT AVBL
GWINNER        SUNNY     64  61  88 S6        29.98R
BUFFALO        NOT AVBL
WYNDMERE       NOT AVBL
 ***** THE ABOVE OBSERVATIONS ARE NON NWS ARE NOT QUALITY
       CONTROLLED AND MAY MIS-REPORT RAIN FOR SNOW...
$$

  *****  WEATHER ACROSS NORTHERN MINNESOTA  *****

CITY           SKY/WX    TMP DP  RH WIND       PRES   REMARKS
FLAG ISLAND    SUNNY     64  57  77 S5        29.97S
WARROAD        SUNNY     61  55  82 S3        29.98S HAZE
ROSEAU         SUNNY     61  54  77 S6        29.97F
HALLOCK        SUNNY     63  55  77 S10       29.93S
THF RVR FALLS  SUNNY     61  54  77 S7        29.98S
HALSTAD          N/A     62  54  73 SE9         N/A
FOSSTON        SUNNY     63  54  72 S7        30.00S
BAUDETTE       SUNNY     61  55  81 S3        30.00S
WASKISH        NOT AVBL
CROOKSTON      SUNNY     63  55  77 S9        29.97S
$$
  *****  WEATHER ACROSS CENTRAL AND WEST MINNESOTA  *****

CITY           SKY/WX    TMP DP  RH WIND       PRES   REMARKS
BEMIDJI        SUNNY     59  55  85 S3        30.02R
PARK RAPIDS    SUNNY     59  55  87 CALM      30.03R
WADENA         SUNNY     59  54  82 CALM      30.02S
DETROIT LAKES  SUNNY     63  57  82 SE5       30.02S
MOORHEAD       NOT AVBL
FERGUS FALLS   SUNNY     66  54  63 SE6       30.01R
ELBOW LAKE     NOT AVBL
MORRIS MN      SUNNY     63  57  82 SE6       30.00S
STAPLES        SUNNY     59  55  88 CALM      30.03S
WHEATON        SUNNY     61  55  82 SE8       30.01R
$$
  *****  WEATHER ELSEWHERE ACROSS MINNESOTA  *****

CITY           SKY/WX    TMP DP  RH WIND       PRES   REMARKS
DULUTH         MOSUNNY   61  53  75 S7        30.07S
INTRNTL FALLS  SUNNY     59  54  83 SE3       30.02R
ELY            MOSUNNY   63  54  72 SW5       30.07R
CLOQUET        SUNNY     61  54  77 SE3       30.07S
BRAINERD       SUNNY     65  56  72 S5        30.04S
HIBBING        SUNNY     58  52  80 VRB3      30.06S
ALEXANDRIA     SUNNY     64  52  64 SE7       30.04R
SAINT CLOUD    SUNNY     61  59  93 SE3       30.04S
MINNEAPOLIS    MOSUNNY   64  58  80 SE8       30.06R
$$

  *****  WEATHER ACROSS SOUTH DAKOTA  *****

CITY           SKY/WX    TMP DP  RH WIND       PRES   REMARKS
SIOUX FALLS    MOSUNNY   68  60  75 S14       30.02R
BROOKINGS      NOT AVBL
WATERTOWN      SUNNY     62  55  77 S8        30.00R
HURON          MOSUNNY   63  58  83 S8        29.96S
SISSETON         N/A     61  58  90 S5        29.98R
ABERDEEN       SUNNY     61  58  90 S8        29.95S
MITCHELL       MOSUNNY   64  60  87 SE10      29.98F
PIERRE         CLOUDY    63  59  87 SE13      29.90F
MOBRIDGE       SUNNY     63  59  87 SE7       29.90R
RAPID CITY     PTSUNNY   61  59  93 SE7       29.87R
$$

  *****  SOME WEATHER IN NEARBY STATES *****

CITY           SKY/WX    TMP DP  RH WIND       PRES   REMARKS
GLASGOW MT     PTSUNNY   70  60  70 SE15G24   29.72R
GREAT FALLS MT SUNNY     63  49  60 N7        29.90R
CHEYENNE WY    SUNNY     66  44  45 SW7       30.09R
SCOTTSBLUFF NE SUNNY     62  57  83 E3        29.97R
OMAHA NE       CLOUDY    69  61  75 SE9       30.05R
DES MOINES IA  MOSUNNY   68  59  73 S7        30.10R
DAVENPORT IA   SUNNY     67  59  75 SE6       30.14R
CHICAGO IL     MOSUNNY   69  56  62 CALM      30.14S
EAU CLAIRE WI  SUNNY     64  55  72 SE6       30.09R
LA CROSSE WI   MOSUNNY   65  55  70 SE6       30.10R
$$

  *****  SOME NATIONAL WEATHER *****

CITY           SKY/WX    TMP DP  RH WIND       PRES   REMARKS
LA GUARDIA NY  PTSUNNY   71  63  75 NE12      30.09R
RALEIGH NC     CLOUDY    78  70  76 SW6       30.08R
ATLANTA GA     PTSUNNY   74  69  85 W5        30.10R
NEW ORLEANS LA MOSUNNY   80  75  84 S3        30.09R
OKLAHOMA CITY  CLOUDY    75  70  83 N17       30.04R
ALBUQUERQUE NM MOSUNNY   68  55  63 N3        30.17R
SALT LAKE CITY MOCLDY    70  61  73 SE8       29.99S
LOS ANGELES CA CLOUDY    68  60  75 W5        29.95R
BOISE ID       PTCLDY    68  50  52 E6        29.92R
SEATTLE WA     PTCLDY    56  53  90 S3        29.98S
$$

*** WEATHER ACROSS MANITOBA...SASKATCHEWAN AND ONTARIO ***
                ***ONTARIO***

CITY           SKY/WX    TMP DP  RH WIND       PRES   REMARKS
GERALDTON      MOSUNNY   59  48  67 W6        30.08R
THUNDER BAY    MOSUNNY   57  50  77 CALM      30.09S
SIOUX LOOKOUT  MOSUNNY   61  52  72 SE3       30.02R
TORONTO        MOSUNNY   63  50  63 N7        30.17R
BIG TROUT LK   CLOUDY    61  54  77 SW7       29.84S
PICKLE LAKE    MOSUNNY   63  48  59 W8        29.98R
DRYDEN         SUNNY     61  54  77 S10       30.01S
KENORA         PTSUNNY   63  57  82 S7        30.00R
$$
                *** MANITOBA***

CITY           SKY/WX    TMP DP  RH WIND       PRES   REMARKS
BRANDON        MOSUNNY   63  57  82 SE6       29.82F
DAUPHIN        MOSUNNY   72  59  64 SW14G22   29.74F
ISLAND LAKE    CLOUDY    61  55  82 SW8       29.82S
PILOT MOUND      N/A     59  55  88 S10         N/A
THE PAS        LGT RAIN  64  59  82 SE9       29.63F
THOMPSON       LGT RAIN  57  57 100 E8        29.71S
WINNIPEG       NOT AVBL
LYNN LAKE      CLOUDY    59  57  94 SE12G18   29.65F
CHURCHILL      CLOUDY    48  48 100 E10       29.84R FOG
GILLAM         CLOUDY    55  55 100 NE6       29.77R
$$
                ***SASKATCHEWAN***

CITY           SKY/WX    TMP DP  RH WIND       PRES   REMARKS
ESTEVAN        PTSUNNY   70  59  68 S17       29.78S
KINDERSLEY     MOSUNNY   57  55  94 NW7       29.77R
LLOYDMINSTER   CLOUDY    55  50  82 W13       29.79R
PRINCE ALBERT  PTSUNNY   63  61  94 NW9       29.62R
REGINA         MOSUNNY   64  59  82 SE9       29.69R
YORKTON        PTSUNNY   64  59  82 S12       29.69S HAZE


USA.gov is the U.S. government's official web portal to all federal, state and local government web resources and services.